Location: ??
(35.5672°N, 139.6509°E)
Time: 09:59:57
(UTC+00:00)

NOSS 0 Rocket - Pass Details

Date: 03 August 2024
Orbit: 933 x 955 km, 70.0° (Epoch: 13 September)

Event Time Altitude Azimuth Distance (km) Brightness Sun altitude
Exits shadow 18:11:36 22° 194° (SSW) 1,917 5.1 -18.5°
Maximum altitude 18:15:43 79° 111° (ESE) 968 4.0 -17.8°
Drops below altitude 10° 18:21:57 10° 25° (NNE) 2,682 7.3 -16.8°
Sets 18:24:30 0° 25° (NNE) 3,633 8.1 -16.4°
